TimeCDT,TemperatureF,Dew PointF,Humidity,Sea Level PressureIn,VisibilityMPH,Wind Direction,Wind SpeedMPH,Gust SpeedMPH,PrecipitationIn,Events,Conditions,WindDirDegrees,DateUTC
12:15 AM,68.0,66.2,94,29.74,10.0,South,11.5,-,0.01,Rain-Thunderstorm,Light Thunderstorms and Rain,170,2013-04-11 05:15:00
12:35 AM,68.0,64.4,88,29.74,10.0,SSW,9.2,-,0.06,Rain-Thunderstorm,Rain,200,2013-04-11 05:35:00
12:55 AM,66.2,64.4,94,29.75,5.0,West,10.4,23.0,0.13,Rain-Thunderstorm,Heavy Thunderstorms and Rain,270,2013-04-11 05:55:00
1:15 AM,66.2,62.6,88,29.74,10.0,West,6.9,-,0.02,Rain-Thunderstorm,Light Thunderstorms and Rain,280,2013-04-11 06:15:00
1:35 AM,64.4,62.6,94,29.77,3.0,WNW,10.4,-,0.16,Rain-Thunderstorm,Rain,290,2013-04-11 06:35:00
1:55 AM,62.6,60.8,94,29.75,7.0,WNW,13.8,-,0.22,Rain-Thunderstorm,Rain,300,2013-04-11 06:55:00
2:15 AM,59.0,55.4,88,29.75,10.0,WNW,11.5,-,0.01,Rain,Light Rain,290,2013-04-11 07:15:00
2:35 AM,57.2,55.4,94,29.76,10.0,West,6.9,-,0.02,Rain-Thunderstorm,Light Thunderstorms and Rain,280,2013-04-11 07:35:00
2:55 AM,55.4,53.6,94,29.78,10.0,West,11.5,-,0.11,Rain-Thunderstorm,Heavy Thunderstorms and Rain,260,2013-04-11 07:55:00
3:15 AM,53.6,53.6,100,29.77,7.0,WNW,10.4,-,0.04,Rain-Thunderstorm,Rain,300,2013-04-11 08:15:00
3:35 AM,53.6,51.8,94,29.76,7.0,NW,6.9,-,0.10,Rain-Thunderstorm,Heavy Thunderstorms and Rain,320,2013-04-11 08:35:00
3:55 AM,51.8,50.0,94,29.77,7.0,NW,12.7,-,0.16,Rain,Rain,310,2013-04-11 08:55:00
4:15 AM,51.8,50.0,94,29.75,7.0,NW,8.1,-,0.03,Rain,Rain,310,2013-04-11 09:15:00
4:35 AM,51.8,50.0,94,29.76,7.0,WNW,8.1,-,0.07,Rain-Thunderstorm,Rain,300,2013-04-11 09:35:00
4:55 AM,51.8,50.0,94,29.77,7.0,West,6.9,-,0.12,Rain,Rain,280,2013-04-11 09:55:00
5:15 AM,51.8,50.0,94,29.74,7.0,West,4.6,-,0.05,Rain,Heavy Rain,280,2013-04-11 10:15:00
5:35 AM,50.0,50.0,100,29.73,7.0,ESE,3.5,-,0.10,Rain,Rain,120,2013-04-11 10:35:00
5:55 AM,51.8,50.0,94,29.75,10.0,West,4.6,-,0.11,Rain,Light Rain,260,2013-04-11 10:55:00
6:15 AM,51.8,50.0,94,29.74,10.0,Calm,Calm,-,N/A,Rain,Rain,0,2013-04-11 11:15:00
6:35 AM,51.8,50.0,94,29.78,10.0,West,11.5,-,0.02,Rain,Light Rain,280,2013-04-11 11:35:00
6:55 AM,51.8,50.0,94,29.77,10.0,WNW,3.5,-,0.06,Rain-Thunderstorm,Light Thunderstorms and Rain,290,2013-04-11 11:55:00
7:15 AM,51.8,50.0,94,29.75,7.0,West,10.4,-,0.02,Rain,Rain,280,2013-04-11 12:15:00
7:35 AM,51.8,50.0,94,29.79,10.0,West,12.7,-,0.07,Rain,Rain,280,2013-04-11 12:35:00
7:55 AM,51.8,50.0,94,29.79,7.0,WNW,10.4,-,0.10,Rain-Thunderstorm,Rain,290,2013-04-11 12:55:00
8:35 AM,50.0,48.2,94,29.77,7.0,NW,10.4,-,0.07,Rain,Light Rain,320,2013-04-11 13:35:00
8:55 AM,50.0,48.2,94,29.78,7.0,NW,10.4,-,0.10,Rain,Rain,310,2013-04-11 13:55:00
9:15 AM,50.0,46.4,87,29.77,10.0,NW,8.1,-,0.01,Rain,Rain,320,2013-04-11 14:15:00
9:35 AM,50.0,46.4,87,29.80,10.0,NNW,6.9,-,0.04,Rain,Rain,340,2013-04-11 14:35:00
9:55 AM,50.0,46.4,87,29.80,7.0,NW,5.8,-,0.10,Rain,Rain,320,2013-04-11 14:55:00
10:15 AM,50.0,48.2,94,29.80,10.0,WNW,10.4,-,0.03,Rain,Light Rain,300,2013-04-11 15:15:00
10:35 AM,50.0,46.4,87,29.82,7.0,WNW,11.5,-,0.05,Rain,Rain,290,2013-04-11 15:35:00
10:55 AM,50.0,46.4,87,29.83,10.0,West,9.2,-,0.05,,Light Drizzle,280,2013-04-11 15:55:00
11:15 AM,50.0,46.4,87,29.81,7.0,WNW,12.7,-,0.03,Rain,Rain,300,2013-04-11 16:15:00
11:35 AM,50.0,46.4,87,29.79,10.0,NW,12.7,-,0.04,Rain,Light Rain,310,2013-04-11 16:35:00
11:55 AM,48.2,46.4,93,29.81,10.0,NW,8.1,-,0.04,Rain,Light Rain,310,2013-04-11 16:55:00
12:15 PM,48.2,46.4,93,29.81,10.0,NW,8.1,-,0.01,Rain,Rain,320,2013-04-11 17:15:00
12:35 PM,48.2,46.4,93,29.79,10.0,NW,6.9,-,0.02,Rain,Light Rain,320,2013-04-11 17:35:00
12:55 PM,48.2,46.4,93,29.79,10.0,Calm,Calm,-,0.04,Rain,Rain,0,2013-04-11 17:55:00
1:15 PM,50.0,46.4,87,29.74,10.0,Calm,Calm,-,0.01,Rain,Light Rain,0,2013-04-11 18:15:00
1:35 PM,50.0,46.4,87,29.72,5.0,NE,5.8,-,0.04,Rain,Light Rain,40,2013-04-11 18:35:00
1:55 PM,50.0,46.4,87,29.75,10.0,NW,8.1,-,0.05,Rain,Light Rain,310,2013-04-11 18:55:00
2:15 PM,50.0,46.4,87,29.78,10.0,WNW,11.5,-,N/A,Rain,Light Rain,290,2013-04-11 19:15:00
2:35 PM,50.0,46.4,87,29.77,10.0,WNW,12.7,-,N/A,Rain,Light Rain,300,2013-04-11 19:35:00
2:55 PM,50.0,46.4,87,29.76,10.0,WNW,12.7,18.4,N/A,,Overcast,290,2013-04-11 19:55:00
3:15 PM,50.0,46.4,87,29.73,10.0,NNW,6.9,-,N/A,,Overcast,340,2013-04-11 20:15:00
3:35 PM,50.0,46.4,87,29.74,10.0,NW,10.4,-,N/A,,Overcast,320,2013-04-11 20:35:00
3:55 PM,50.0,46.4,87,29.72,10.0,NNW,8.1,-,N/A,,Overcast,330,2013-04-11 20:55:00
4:15 PM,50.0,46.4,87,29.73,10.0,WNW,6.9,-,N/A,,Overcast,300,2013-04-11 21:15:00
4:35 PM,50.0,46.4,87,29.75,10.0,NW,8.1,-,N/A,,Overcast,310,2013-04-11 21:35:00
4:55 PM,50.0,46.4,87,29.75,10.0,NW,9.2,-,N/A,,Overcast,310,2013-04-11 21:55:00
5:15 PM,50.0,46.4,87,29.75,10.0,WNW,11.5,-,N/A,,Overcast,300,2013-04-11 22:15:00
5:35 PM,50.0,46.4,87,29.76,10.0,NW,10.4,-,N/A,,Overcast,310,2013-04-11 22:35:00
5:55 PM,50.0,46.4,87,29.78,10.0,WNW,11.5,-,N/A,,Overcast,300,2013-04-11 22:55:00
6:15 PM,50.0,44.6,82,29.78,10.0,WNW,6.9,-,N/A,,Overcast,290,2013-04-11 23:15:00
6:35 PM,50.0,44.6,82,29.78,10.0,West,6.9,-,N/A,,Overcast,280,2013-04-11 23:35:00
6:55 PM,50.0,44.6,82,29.77,10.0,WSW,3.5,-,N/A,,Overcast,240,2013-04-11 23:55:00
7:15 PM,50.0,44.6,82,29.77,10.0,West,5.8,-,N/A,,Overcast,260,2013-04-12 00:15:00
7:35 PM,50.0,42.8,76,29.78,10.0,WSW,8.1,-,N/A,,Overcast,250,2013-04-12 00:35:00
7:55 PM,50.0,44.6,82,29.78,10.0,SW,6.9,-,N/A,,Overcast,230,2013-04-12 00:55:00
8:15 PM,50.0,44.6,82,29.77,10.0,WSW,4.6,-,N/A,,Overcast,240,2013-04-12 01:15:00
8:35 PM,48.2,44.6,87,29.79,10.0,WSW,4.6,-,N/A,,Overcast,250,2013-04-12 01:35:00
8:55 PM,46.4,44.6,93,29.81,10.0,WSW,5.8,-,N/A,,Scattered Clouds,250,2013-04-12 01:55:00
9:15 PM,46.4,42.8,87,29.81,10.0,WSW,5.8,-,N/A,,Clear,250,2013-04-12 02:15:00
9:35 PM,46.4,42.8,87,29.81,10.0,Calm,Calm,-,N/A,,Clear,0,2013-04-12 02:35:00
9:55 PM,44.6,42.8,93,29.82,10.0,Calm,Calm,-,N/A,,Clear,0,2013-04-12 02:55:00
10:15 PM,44.6,42.8,93,29.83,10.0,WSW,3.5,-,N/A,,Clear,250,2013-04-12 03:15:00
10:35 PM,44.6,42.8,93,29.83,10.0,Calm,Calm,-,N/A,,Clear,0,2013-04-12 03:35:00
10:55 PM,44.6,42.8,93,29.84,10.0,SW,3.5,-,N/A,,Clear,230,2013-04-12 03:55:00
11:15 PM,44.6,42.8,93,29.85,10.0,South,3.5,-,N/A,,Clear,180,2013-04-12 04:15:00
11:35 PM,42.8,41.0,93,29.85,10.0,South,4.6,-,N/A,,Clear,190,2013-04-12 04:35:00
11:55 PM,44.6,42.8,93,29.85,10.0,SSW,4.6,-,N/A,,Clear,200,2013-04-12 04:55:00